Regional Weather Roundup
Issued by NWS

Home | Current Version | Previous Version | Graphics & Text | Print | Product List | Glossary On
Versions: 1 2 3 4 5 6 7 8 9 10 11 12 13 14 15 16 17 18 19 20 21 22 23 24 25 26 27 28 29 30 31 32 33 34 35 36 37 38 39 40 41 42 43
000
ASUS45 KBOU 281007
RWRCO

WEATHER ROUNDUP FOR COLORADO
NATIONAL WEATHER SERVICE DENVER/BOULDER CO
300 AM MST SUN DEC 28 2014

NOTE: "FAIR" INDICATES FEW OR NO CLOUDS BELOW 12000 FEET WITH NO
SIGNIFICANT WEATHER AND/OR OBSTRUCTIONS TO VISIBILITY.

COZ001>005-013-030-031-281100-
...NORTHWEST COLORADO...

CITY           SKY/WX    TMP DP  RH WIND       PRES   REMARKS
CRAIG          CLOUDY    12   5  73 E3        30.12F
HAYDEN         CLOUDY     7   0  72 E9        30.10S WCI  -7
MEEKER         CLOUDY    13   5  70 CALM      30.12F
MOUNT WERNER   NOT AVBL
STEAMBOAT SPGS CLOUDY     1  -2  85 CALM      30.10S
WALDEN         CLOUDY    12   1  62 S13G20    29.97S WCI  -3
$$

COZ006>008-011-281100-
...WEST CENTRAL VALLEYS...

CITY           SKY/WX    TMP DP  RH WIND       PRES   REMARKS
GRAND JUNCTION MOCLDY    17  10  74 E7        30.23F WCI   8
MONTROSE       CLOUDY    13   6  74 SE7       30.23F WCI   3
EAGLE          PTCLDY     3   0  85 CALM      30.18S
RIFLE          CLOUDY    13   7  77 CALM      30.22F
DELTA          CLOUDY    19   8  64 E5        30.26S WCI  12
NUCLA          PTCLDY    12   5  73 E3        30.25S
$$

COZ017>023-064>068-281100-
...SOUTHWEST COLORADO...

CITY           SKY/WX    TMP DP  RH WIND       PRES   REMARKS
DURANGO        MOCLDY     1  -3  83 CALM      30.19F
CORTEZ         CLEAR      7   2  80 E5        30.24R WCI  -2
PAGOSA SPRINGS MOCLDY     3  -1  82 CALM      30.15S
TELLURIDE      MOCLDY     7  -3  63 SE7       30.10F WCI  -5
WOLF CREEK PAS PTCLDY     3   0  85 MISG      30.01S
$$

COZ009-010-012-014-032>034-037-058>063-281100-
...CENTRAL COLORADO...

CITY           SKY/WX    TMP DP  RH WIND       PRES   REMARKS
ASPEN          CLOUDY     4  -2  76 CALM      30.07F
BUENA VISTA    PTCLDY     0  -9  66 CALM      30.01S
COPPER MTN     MOCLDY    12 -18  24 SW13G20   29.93F WCI  -3
BERTHOUD PASS  NOT AVBL
COTTONWOOD PAS PTCLDY    21 -22  14 NW12G26   29.93F WCI   9
GUNNISON       PTCLDY   -18 N/A N/A E3        30.21F
KREMMLING      CLOUDY     0  -6  78 CALM      30.12S
LEADVILLE      PTCLDY    12 -16  27 N15G25    29.95F WCI  -4
SALIDA         PTCLDY     9  -2  62 N9        30.08F WCI  -4
SUNLIGHT       PTCLDY   N/A N/A N/A CALM      30.00S
WILKERSON PASS PTCLDY     9 -13  37 W12G18    29.89S WCI  -6
$$

COZ069>075-281100-
...SAN LUIS VALLEY/SANGRE DE CRISTO MOUNTAINS...

CITY           SKY/WX    TMP DP  RH WIND       PRES   REMARKS
ALAMOSA        MOCLDY    -9 -14  78 CALM      30.14F
LA VETA PASS   NOT AVBL
SAGUACHE       MOCLDY     1  -6  71 NW15      30.14S WCI -18
$$

COZ035-036-038>040-281100-
...NORTHERN COLORADO FRONT RANGE...

CITY           SKY/WX    TMP DP  RH WIND       PRES   REMARKS
DENVER INTL AP MOCLDY    13   3  64 SW7       29.95S WCI   3
DMNS CITY PARK   N/A     13   7  74 E3        29.94F
AURORA         PTCLDY    15   3  58 SW8       29.94F WCI   5
FRONT RANGE AP MOCLDY    14   5  67 S10       29.94F WCI   1
ERIE MUNI ARPT   N/A    N/A N/A N/A CALM      29.97F
BOULDER MUN AP MOCLDY    12  10  92 CALM      29.95F
CENTENNIAL     MOCLDY    16   3  56 S8        29.92F WCI   5
BROOMFIELD     MOCLDY    19  10  68 N7        29.94F WCI  10
FORT COLLINS   PTCLDY     7   1  78 CALM      29.98S
LONGMONT       PTCLDY     8   4  84 CALM      29.99F
$$

COZ041-046-047-076>085-087-088-281100-
...PIKES PEAK/PALMER DIVIDE AND SOUTHERN FOOTHILLS...

CITY           SKY/WX    TMP DP  RH WIND       PRES   REMARKS
COLO. SPRINGS  PTCLDY    14   3  61 E3        29.96F
A. F. ACADEMY  PTCLDY    10  -1  62 N8        29.94F WCI  -2
ELLICOTT       NOT AVBL
FALCON         PTCLDY    11   2  65 CALM      29.94F
FORT CARSON    PTCLDY    13   6  75 NW9       29.96F WCI   1
LIMON          PTCLDY    -2  -6  83 CALM      30.00S
MONUMENT HILL  PTCLDY    14   0  52 SW9       29.91F WCI   2
TRINIDAD       PTCLDY    10   1  67 W10       30.00F WCI  -4
$$

COZ042>045-048>051-090-091-281100-
...NORTHEAST COLORADO...

CITY           SKY/WX    TMP DP  RH WIND       PRES   REMARKS
GREELEY ARPT   MOCLDY    -8 -15  71 CALM      29.98F
AKRON          PTCLDY    11   5  77 W10       29.99F WCI  -3
BURLINGTON     PTCLDY     9   4  80 SW9       30.04F WCI  -4
WRAY           MOCLDY     9   4  81 W10       30.05F WCI  -6
STERLING       PTCLDY     0  -6  78 SW7       30.04S WCI -13
HOLYOKE        MOCLDY     5   1  85 W12       30.04F WCI -11
FORT MORGAN    PTCLDY    -3  -8  82 W10       30.01F WCI -21
$$

COZ086-089-092>099-281100-
...SOUTHEAST COLORADO...

CITY           SKY/WX    TMP DP  RH WIND       PRES   REMARKS
PUEBLO         PTCLDY     8   5  87 NE5       30.02F WCI   0
LA JUNTA       PTCLDY     9   5  84 W10       30.06F WCI  -5
LAMAR          CLEAR      5   2  87 S6        30.07F WCI  -6
SPRINGFIELD      N/A     16  10  77 W12       30.02F WCI   3
$$



USA.gov is the U.S. government's official web portal to all federal, state and local government web resources and services.